Year,Month,Day,Hour,Minute,Value (Times are PST for temperature in C)
2010,07,26,00,00,16.50
2010,07,26,00,01,16.50
2010,07,26,00,02,16.40
2010,07,26,00,03,16.40
2010,07,26,00,04,16.40
2010,07,26,00,05,16.40
2010,07,26,00,06,16.30
2010,07,26,00,07,16.30
2010,07,26,00,08,16.30
2010,07,26,00,09,16.30
2010,07,26,00,10,16.30
2010,07,26,00,11,16.30
2010,07,26,00,12,16.30
2010,07,26,00,13,16.20
2010,07,26,00,14,16.20
2010,07,26,00,15,16.20
2010,07,26,00,16,16.20
2010,07,26,00,17,16.20
2010,07,26,00,18,16.20
2010,07,26,00,19,16.20
2010,07,26,00,20,16.20
2010,07,26,00,21,16.20
2010,07,26,00,22,16.20
2010,07,26,00,23,16.20
2010,07,26,00,24,16.20
2010,07,26,00,25,16.20
2010,07,26,00,26,16.20
2010,07,26,00,27,16.20
2010,07,26,00,28,16.20
2010,07,26,00,29,16.20
2010,07,26,00,30,16.20
2010,07,26,00,31,16.20
2010,07,26,00,32,16.20
2010,07,26,00,33,16.20
2010,07,26,00,34,16.20
2010,07,26,00,35,16.10
2010,07,26,00,36,16.10
2010,07,26,00,37,16.10
2010,07,26,00,38,16.10
2010,07,26,00,39,16.00
2010,07,26,00,40,16.00
2010,07,26,00,41,15.90
2010,07,26,00,42,15.90
2010,07,26,00,43,15.90
2010,07,26,00,44,15.90
2010,07,26,00,45,15.90
2010,07,26,00,46,15.80
2010,07,26,00,47,15.80
2010,07,26,00,48,15.80
2010,07,26,00,49,15.80
2010,07,26,00,50,15.80
2010,07,26,00,51,15.70
2010,07,26,00,52,15.70
2010,07,26,00,53,15.70
2010,07,26,00,54,15.70
2010,07,26,00,55,15.70
2010,07,26,00,56,15.70
2010,07,26,00,57,15.60
2010,07,26,00,58,15.60
2010,07,26,00,59,15.60
2010,07,26,01,00,15.60
2010,07,26,01,01,15.60
2010,07,26,01,02,15.60
2010,07,26,01,03,15.60
2010,07,26,01,04,15.50
2010,07,26,01,05,15.50
2010,07,26,01,06,15.50
2010,07,26,01,07,15.50
2010,07,26,01,08,15.50
2010,07,26,01,09,15.40
2010,07,26,01,10,15.40
2010,07,26,01,11,15.40
2010,07,26,01,12,15.40
2010,07,26,01,13,15.40
2010,07,26,01,14,15.40
2010,07,26,01,15,15.40
2010,07,26,01,16,15.40
2010,07,26,01,17,15.40
2010,07,26,01,18,15.40
2010,07,26,01,19,15.30
2010,07,26,01,20,15.30
2010,07,26,01,21,15.30
2010,07,26,01,22,15.30
2010,07,26,01,23,15.30
2010,07,26,01,24,15.30
2010,07,26,01,25,15.30
2010,07,26,01,26,15.30
2010,07,26,01,27,15.30
2010,07,26,01,28,15.30
2010,07,26,01,29,15.30
2010,07,26,01,30,15.30
2010,07,26,01,31,15.30
2010,07,26,01,32,15.20
2010,07,26,01,33,15.20
2010,07,26,01,34,15.20
2010,07,26,01,35,15.20
2010,07,26,01,36,15.20
2010,07,26,01,37,15.20
2010,07,26,01,38,15.10
2010,07,26,01,39,15.10
2010,07,26,01,40,15.10
2010,07,26,01,41,15.00
2010,07,26,01,42,15.00
2010,07,26,01,43,15.00
2010,07,26,01,44,15.00
2010,07,26,01,45,15.00
2010,07,26,01,46,15.00
2010,07,26,01,47,15.00
2010,07,26,01,48,15.00
2010,07,26,01,49,15.00
2010,07,26,01,50,15.00
2010,07,26,01,51,15.00
2010,07,26,01,52,15.00
2010,07,26,01,53,15.00
2010,07,26,01,54,14.90
2010,07,26,01,55,14.90
2010,07,26,01,56,14.90
2010,07,26,01,57,14.80
2010,07,26,01,58,14.80
2010,07,26,01,59,14.80
2010,07,26,02,00,14.80
2010,07,26,02,01,14.70
2010,07,26,02,02,14.70
2010,07,26,02,03,14.70
2010,07,26,02,04,14.70
2010,07,26,02,05,14.70
2010,07,26,02,06,14.60
2010,07,26,02,07,14.60
2010,07,26,02,08,14.60
2010,07,26,02,09,14.60
2010,07,26,02,10,14.50
2010,07,26,02,11,14.50
2010,07,26,02,12,14.50
2010,07,26,02,13,14.40
2010,07,26,02,14,14.40
2010,07,26,02,15,14.40
2010,07,26,02,16,14.40
2010,07,26,02,17,14.40
2010,07,26,02,18,14.40
2010,07,26,02,19,14.30
2010,07,26,02,20,14.30
2010,07,26,02,21,14.30
2010,07,26,02,22,14.30
2010,07,26,02,23,14.30
2010,07,26,02,24,14.30
2010,07,26,02,25,14.20
2010,07,26,02,26,14.20
2010,07,26,02,27,14.20
2010,07,26,02,28,14.20
2010,07,26,02,29,14.20
2010,07,26,02,30,14.20
2010,07,26,02,31,14.20
2010,07,26,02,32,14.20
2010,07,26,02,33,14.20
2010,07,26,02,34,14.20
2010,07,26,02,35,14.20
2010,07,26,02,36,14.20
2010,07,26,02,37,14.20
2010,07,26,02,38,14.20
2010,07,26,02,39,14.10
2010,07,26,02,40,14.10
2010,07,26,02,41,14.10
2010,07,26,02,42,14.10
2010,07,26,02,43,14.10
2010,07,26,02,44,14.10
2010,07,26,02,45,14.10
2010,07,26,02,46,14.10
2010,07,26,02,47,14.10
2010,07,26,02,48,14.00
2010,07,26,02,49,14.00
2010,07,26,02,50,14.00
2010,07,26,02,51,14.00
2010,07,26,02,52,14.00
2010,07,26,02,53,14.00
2010,07,26,02,54,14.00
2010,07,26,02,55,14.00
2010,07,26,02,56,14.00
2010,07,26,02,57,14.00
2010,07,26,02,58,14.00
2010,07,26,02,59,14.00
2010,07,26,03,00,14.00
2010,07,26,03,01,14.00
2010,07,26,03,02,13.90
2010,07,26,03,03,13.90
2010,07,26,03,04,13.90
2010,07,26,03,05,13.90
2010,07,26,03,06,13.90
2010,07,26,03,07,13.90
2010,07,26,03,08,13.90
2010,07,26,03,09,13.90
2010,07,26,03,10,13.90
2010,07,26,03,11,13.90
2010,07,26,03,12,13.90
2010,07,26,03,13,13.90
2010,07,26,03,14,13.90
2010,07,26,03,15,13.90
2010,07,26,03,16,13.90
2010,07,26,03,17,13.90
2010,07,26,03,18,13.90
2010,07,26,03,19,13.90
2010,07,26,03,20,13.90
2010,07,26,03,21,13.80
2010,07,26,03,22,13.80
2010,07,26,03,23,13.80
2010,07,26,03,24,13.80
2010,07,26,03,25,13.80
2010,07,26,03,26,13.80
2010,07,26,03,27,13.70
2010,07,26,03,28,13.70
2010,07,26,03,29,13.70
2010,07,26,03,30,13.70
2010,07,26,03,31,13.70
2010,07,26,03,32,13.70
2010,07,26,03,33,13.70
2010,07,26,03,34,13.60
2010,07,26,03,35,13.60
2010,07,26,03,36,13.60
2010,07,26,03,37,13.60
2010,07,26,03,38,13.60
2010,07,26,03,39,13.50
2010,07,26,03,40,13.50
2010,07,26,03,41,13.50
2010,07,26,03,42,13.50
2010,07,26,03,43,13.40
2010,07,26,03,44,13.40
2010,07,26,03,45,13.40
2010,07,26,03,46,13.40
2010,07,26,03,47,13.40
2010,07,26,03,48,13.40
2010,07,26,03,49,13.40
2010,07,26,03,50,13.30
2010,07,26,03,51,13.30
2010,07,26,03,52,13.30
2010,07,26,03,53,13.30
2010,07,26,03,54,13.30
2010,07,26,03,55,13.30
2010,07,26,03,56,13.30
2010,07,26,03,57,13.30
2010,07,26,03,58,13.20
2010,07,26,03,59,13.20
2010,07,26,04,00,13.20
2010,07,26,04,01,13.20
2010,07,26,04,02,13.20
2010,07,26,04,03,13.20
2010,07,26,04,04,13.10
2010,07,26,04,05,13.10
2010,07,26,04,06,13.10
2010,07,26,04,07,13.10
2010,07,26,04,08,13.10
2010,07,26,04,09,13.10
2010,07,26,04,10,13.10
2010,07,26,04,11,13.10
2010,07,26,04,12,13.10
2010,07,26,04,13,13.10
2010,07,26,04,14,13.10
2010,07,26,04,15,13.10
2010,07,26,04,16,13.10
2010,07,26,04,17,13.00
2010,07,26,04,18,13.00
2010,07,26,04,19,13.00
2010,07,26,04,20,13.00
2010,07,26,04,21,13.00
2010,07,26,04,22,13.00
2010,07,26,04,23,13.00
2010,07,26,04,24,13.00
2010,07,26,04,25,13.00
2010,07,26,04,26,13.00
2010,07,26,04,27,13.00
2010,07,26,04,28,13.00
2010,07,26,04,29,13.00
2010,07,26,04,30,13.00
2010,07,26,04,31,13.00
2010,07,26,04,32,13.00
2010,07,26,04,33,13.00
2010,07,26,04,34,12.90
2010,07,26,04,35,12.90
2010,07,26,04,36,12.90
2010,07,26,04,37,12.90
2010,07,26,04,38,12.90
2010,07,26,04,39,12.90
2010,07,26,04,40,12.90
2010,07,26,04,41,12.90
2010,07,26,04,42,12.90
2010,07,26,04,43,12.90
2010,07,26,04,44,12.90
2010,07,26,04,45,12.80
2010,07,26,04,46,12.80
2010,07,26,04,47,12.80
2010,07,26,04,48,12.80
2010,07,26,04,49,12.80
2010,07,26,04,50,12.80
2010,07,26,04,51,12.80
2010,07,26,04,52,12.80
2010,07,26,04,53,12.80
2010,07,26,04,54,12.70
2010,07,26,04,55,12.70
2010,07,26,04,56,12.70
2010,07,26,04,57,12.70
2010,07,26,04,58,12.70
2010,07,26,04,59,12.70
2010,07,26,05,00,12.70
2010,07,26,05,01,12.70
2010,07,26,05,02,12.70
2010,07,26,05,03,12.70
2010,07,26,05,04,12.70
2010,07,26,05,05,12.70
2010,07,26,05,06,12.70
2010,07,26,05,07,12.70
2010,07,26,05,08,12.70
2010,07,26,05,09,12.70
2010,07,26,05,10,12.70
2010,07,26,05,11,12.60
2010,07,26,05,12,12.60
2010,07,26,05,13,12.60
2010,07,26,05,14,12.60
2010,07,26,05,15,12.60
2010,07,26,05,16,12.60
2010,07,26,05,17,12.60
2010,07,26,05,18,12.60
2010,07,26,05,19,12.60
2010,07,26,05,20,12.60
2010,07,26,05,21,12.50
2010,07,26,05,22,12.50
2010,07,26,05,23,12.50
2010,07,26,05,24,12.50
2010,07,26,05,25,12.40
2010,07,26,05,26,12.40
2010,07,26,05,27,12.40
2010,07,26,05,28,12.40
2010,07,26,05,29,12.40
2010,07,26,05,30,12.40
2010,07,26,05,31,12.40
2010,07,26,05,32,12.30
2010,07,26,05,33,12.30
2010,07,26,05,34,12.30
2010,07,26,05,35,12.30
2010,07,26,05,36,12.30
2010,07,26,05,37,12.30
2010,07,26,05,38,12.30
2010,07,26,05,39,12.30
2010,07,26,05,40,12.30
2010,07,26,05,41,12.30
2010,07,26,05,42,12.30
2010,07,26,05,43,12.30
2010,07,26,05,44,12.20
2010,07,26,05,45,12.20
2010,07,26,05,46,12.20
2010,07,26,05,47,12.20
2010,07,26,05,48,12.20
2010,07,26,05,49,12.20
2010,07,26,05,50,12.20
2010,07,26,05,51,12.20
2010,07,26,05,52,12.20
2010,07,26,05,53,12.20
2010,07,26,05,54,12.20
2010,07,26,05,55,12.20
2010,07,26,05,56,12.20
2010,07,26,05,57,12.20
2010,07,26,05,58,12.20
2010,07,26,05,59,12.20
2010,07,26,06,00,12.20
2010,07,26,06,01,12.20
2010,07,26,06,02,12.20
2010,07,26,06,03,12.20
2010,07,26,06,04,12.20
2010,07,26,06,05,12.20
2010,07,26,06,06,12.20
2010,07,26,06,07,12.20
2010,07,26,06,08,12.20
2010,07,26,06,09,12.30
2010,07,26,06,10,12.30
2010,07,26,06,11,12.30
2010,07,26,06,12,12.30
2010,07,26,06,13,12.30
2010,07,26,06,14,12.30
2010,07,26,06,15,12.30
2010,07,26,06,16,12.30
2010,07,26,06,17,12.30
2010,07,26,06,18,12.30
2010,07,26,06,19,12.30
2010,07,26,06,20,12.30
2010,07,26,06,21,12.30
2010,07,26,06,22,12.30
2010,07,26,06,23,12.30
2010,07,26,06,24,12.40
2010,07,26,06,25,12.40
2010,07,26,06,26,12.40
2010,07,26,06,27,12.40
2010,07,26,06,28,12.40
2010,07,26,06,29,12.40
2010,07,26,06,30,12.40
2010,07,26,06,31,12.40
2010,07,26,06,32,12.40
2010,07,26,06,33,12.40
2010,07,26,06,34,12.40
2010,07,26,06,35,12.40
2010,07,26,06,36,12.40
2010,07,26,06,37,12.40
2010,07,26,06,38,12.40
2010,07,26,06,39,12.40
2010,07,26,06,40,12.40
2010,07,26,06,41,12.40
2010,07,26,06,42,12.40
2010,07,26,06,43,12.40
2010,07,26,06,44,12.40
2010,07,26,06,45,12.40
2010,07,26,06,46,12.40
2010,07,26,06,47,12.40
2010,07,26,06,48,12.40
2010,07,26,06,49,12.50
2010,07,26,06,50,12.50
2010,07,26,06,51,12.50
2010,07,26,06,52,12.50
2010,07,26,06,53,12.50
2010,07,26,06,54,12.50
2010,07,26,06,55,12.60
2010,07,26,06,56,12.60
2010,07,26,06,57,12.60
2010,07,26,06,58,12.60
2010,07,26,06,59,12.70
2010,07,26,07,00,12.70
2010,07,26,07,01,12.70
2010,07,26,07,02,12.70
2010,07,26,07,03,12.70
2010,07,26,07,04,12.70
2010,07,26,07,05,12.80
2010,07,26,07,06,12.80
2010,07,26,07,07,12.80
2010,07,26,07,08,12.80
2010,07,26,07,09,12.80
2010,07,26,07,10,12.80
2010,07,26,07,11,12.80
2010,07,26,07,12,12.80
2010,07,26,07,13,12.80
2010,07,26,07,14,12.80
2010,07,26,07,15,12.90
2010,07,26,07,16,12.90
2010,07,26,07,17,13.00
2010,07,26,07,18,13.00
2010,07,26,07,19,13.10
2010,07,26,07,20,13.10
2010,07,26,07,21,13.10
2010,07,26,07,22,13.20
2010,07,26,07,23,13.20
2010,07,26,07,24,13.20
2010,07,26,07,25,13.30
2010,07,26,07,26,13.30
2010,07,26,07,27,13.30
2010,07,26,07,28,13.40
2010,07,26,07,29,13.40
2010,07,26,07,30,13.40
2010,07,26,07,31,13.40
2010,07,26,07,32,13.50
2010,07,26,07,33,13.50
2010,07,26,07,34,13.50
2010,07,26,07,35,13.60
2010,07,26,07,36,13.60
2010,07,26,07,37,13.70
2010,07,26,07,38,13.70
2010,07,26,07,39,13.70
2010,07,26,07,40,13.80
2010,07,26,07,41,13.80
2010,07,26,07,42,13.80
2010,07,26,07,43,13.80
2010,07,26,07,44,13.90
2010,07,26,07,45,13.90
2010,07,26,07,46,13.90
2010,07,26,07,47,14.00
2010,07,26,07,48,14.10
2010,07,26,07,49,14.20
2010,07,26,07,50,14.20
2010,07,26,07,51,14.30
2010,07,26,07,52,14.40
2010,07,26,07,53,14.40
2010,07,26,07,54,14.50
2010,07,26,07,55,14.50
2010,07,26,07,56,14.60
2010,07,26,07,57,14.60
2010,07,26,07,58,14.70
2010,07,26,07,59,14.70
2010,07,26,08,00,14.80
2010,07,26,08,01,14.90
2010,07,26,08,02,15.00
2010,07,26,08,03,15.00
2010,07,26,08,04,15.00
2010,07,26,08,05,15.00
2010,07,26,08,06,15.10
2010,07,26,08,07,15.20
2010,07,26,08,08,15.40
2010,07,26,08,09,15.50
2010,07,26,08,10,15.60
2010,07,26,08,11,15.70
2010,07,26,08,12,15.80
2010,07,26,08,13,16.00
2010,07,26,08,14,16.10
2010,07,26,08,15,16.20
2010,07,26,08,16,16.40
2010,07,26,08,17,16.50
2010,07,26,08,18,16.60
2010,07,26,08,19,16.70
2010,07,26,08,20,16.80
2010,07,26,08,21,17.00
2010,07,26,08,22,17.10
2010,07,26,08,23,17.20
2010,07,26,08,24,17.30
2010,07,26,08,25,17.40
2010,07,26,08,26,17.50
2010,07,26,08,27,17.60
2010,07,26,08,28,17.70
2010,07,26,08,29,17.80
2010,07,26,08,30,17.90
2010,07,26,08,31,18.00
2010,07,26,08,32,18.10
2010,07,26,08,33,18.20
2010,07,26,08,34,18.30
2010,07,26,08,35,18.50
2010,07,26,08,36,18.60
2010,07,26,08,37,18.70
2010,07,26,08,38,18.70
2010,07,26,08,39,18.80
2010,07,26,08,40,18.90
2010,07,26,08,41,19.00
2010,07,26,08,42,19.00
2010,07,26,08,43,19.10
2010,07,26,08,44,19.20
2010,07,26,08,45,19.20
2010,07,26,08,46,19.20
2010,07,26,08,47,19.20
2010,07,26,08,48,19.30
2010,07,26,08,49,19.30
2010,07,26,08,50,19.30
2010,07,26,08,51,19.40
2010,07,26,08,52,19.40
2010,07,26,08,53,19.50
2010,07,26,08,54,19.60
2010,07,26,08,55,19.70
2010,07,26,08,56,19.70
2010,07,26,08,57,19.80
2010,07,26,08,58,19.80
2010,07,26,08,59,19.80
2010,07,26,09,00,19.90
2010,07,26,09,01,19.90
2010,07,26,09,02,20.00
2010,07,26,09,03,20.00
2010,07,26,09,04,20.00
2010,07,26,09,05,20.00
2010,07,26,09,06,20.10
2010,07,26,09,07,20.10
2010,07,26,09,08,20.20
2010,07,26,09,09,20.20
2010,07,26,09,10,20.10
2010,07,26,09,11,20.10
2010,07,26,09,12,20.10
2010,07,26,09,13,20.10
2010,07,26,09,14,20.10
2010,07,26,09,15,20.10
2010,07,26,09,16,20.10
2010,07,26,09,17,20.10
2010,07,26,09,18,20.10
2010,07,26,09,19,20.10
2010,07,26,09,20,20.20
2010,07,26,09,21,20.20
2010,07,26,09,22,20.30
2010,07,26,09,23,20.30
2010,07,26,09,24,20.30
2010,07,26,09,25,20.30
2010,07,26,09,26,20.30
2010,07,26,09,27,20.30
2010,07,26,09,28,20.30
2010,07,26,09,29,20.30
2010,07,26,09,30,20.30
2010,07,26,09,31,20.40
2010,07,26,09,32,20.40
2010,07,26,09,33,20.40
2010,07,26,09,34,20.40
2010,07,26,09,35,20.50
2010,07,26,09,36,20.50
2010,07,26,09,37,20.60
2010,07,26,09,38,20.70
2010,07,26,09,39,20.80
2010,07,26,09,40,20.80
2010,07,26,09,41,20.90
2010,07,26,09,42,20.90
2010,07,26,09,43,21.00
2010,07,26,09,44,21.10
2010,07,26,09,45,21.20
2010,07,26,09,46,21.30
2010,07,26,09,47,21.40
2010,07,26,09,48,21.40
2010,07,26,09,49,21.50
2010,07,26,09,50,21.50
2010,07,26,09,51,21.50
2010,07,26,09,52,21.50
2010,07,26,09,53,21.50
2010,07,26,09,54,21.60
2010,07,26,09,55,21.60
2010,07,26,09,56,21.70
2010,07,26,09,57,21.70
2010,07,26,09,58,21.70
2010,07,26,09,59,21.70
2010,07,26,10,00,21.70
2010,07,26,10,01,21.70
2010,07,26,10,02,21.70
2010,07,26,10,03,21.70
2010,07,26,10,04,21.80
2010,07,26,10,05,21.80
2010,07,26,10,06,21.80
2010,07,26,10,07,21.90
2010,07,26,10,08,21.90
2010,07,26,10,09,22.00
2010,07,26,10,10,22.00
2010,07,26,10,11,22.10
2010,07,26,10,12,22.20
2010,07,26,10,13,22.30
2010,07,26,10,14,22.30
2010,07,26,10,15,22.30
2010,07,26,10,16,22.30
2010,07,26,10,17,22.30
2010,07,26,10,18,22.40
2010,07,26,10,19,22.40
2010,07,26,10,20,22.30
2010,07,26,10,21,22.40
2010,07,26,10,22,22.40
2010,07,26,10,23,22.40
2010,07,26,10,24,22.40
2010,07,26,10,25,22.50
2010,07,26,10,26,22.60
2010,07,26,10,27,22.60
2010,07,26,10,28,22.70
2010,07,26,10,29,22.70
2010,07,26,10,30,22.70
2010,07,26,10,31,22.70
2010,07,26,10,32,22.60
2010,07,26,10,33,22.60
2010,07,26,10,34,22.60
2010,07,26,10,35,22.60
2010,07,26,10,36,22.60
2010,07,26,10,37,22.60
2010,07,26,10,38,22.60
2010,07,26,10,39,22.60
2010,07,26,10,40,22.60
2010,07,26,10,41,22.60
2010,07,26,10,42,22.70
2010,07,26,10,43,22.70
2010,07,26,10,44,22.80
2010,07,26,10,45,22.80
2010,07,26,10,46,22.90
2010,07,26,10,47,22.90
2010,07,26,10,48,22.90
2010,07,26,10,49,22.80
2010,07,26,10,50,22.90
2010,07,26,10,51,23.00
2010,07,26,10,52,23.10
2010,07,26,10,53,23.10
2010,07,26,10,54,23.20
2010,07,26,10,55,23.30
2010,07,26,10,56,23.30
2010,07,26,10,57,23.40
2010,07,26,10,58,23.50
2010,07,26,10,59,23.60
2010,07,26,11,00,23.60
2010,07,26,11,01,23.60
2010,07,26,11,02,23.70
2010,07,26,11,03,23.80
2010,07,26,11,04,23.80
2010,07,26,11,05,23.70
2010,07,26,11,06,23.60
2010,07,26,11,07,23.50
2010,07,26,11,08,23.40
2010,07,26,11,09,23.50
2010,07,26,11,10,23.50
2010,07,26,11,11,23.60
2010,07,26,11,12,23.60
2010,07,26,11,13,23.70
2010,07,26,11,14,23.80
2010,07,26,11,15,23.80
2010,07,26,11,16,23.90
2010,07,26,11,17,23.90
2010,07,26,11,18,23.90
2010,07,26,11,19,23.90
2010,07,26,11,20,23.90
2010,07,26,11,21,23.90
2010,07,26,11,22,23.90
2010,07,26,11,23,24.00
2010,07,26,11,24,24.00
2010,07,26,11,25,24.00
2010,07,26,11,26,23.90
2010,07,26,11,27,23.90
2010,07,26,11,28,23.90
2010,07,26,11,29,23.90
2010,07,26,11,30,23.90
2010,07,26,11,31,23.80
2010,07,26,11,32,23.80
2010,07,26,11,33,23.80
2010,07,26,11,34,23.80
2010,07,26,11,35,23.80
2010,07,26,11,36,23.80
2010,07,26,11,37,23.80
2010,07,26,11,38,23.80
2010,07,26,11,39,23.80
2010,07,26,11,40,23.80
2010,07,26,11,41,23.90
2010,07,26,11,42,23.90
2010,07,26,11,43,23.80
2010,07,26,11,44,23.80
2010,07,26,11,45,23.80
2010,07,26,11,46,23.90
2010,07,26,11,47,23.90
2010,07,26,11,48,23.90
2010,07,26,11,49,23.90
2010,07,26,11,50,24.00
2010,07,26,11,51,24.00
2010,07,26,11,52,24.10
2010,07,26,11,53,24.10
2010,07,26,11,54,24.20
2010,07,26,11,55,24.30
2010,07,26,11,56,24.30
2010,07,26,11,57,24.30
2010,07,26,11,58,24.30
2010,07,26,11,59,24.40
2010,07,26,12,00,24.40
2010,07,26,12,01,24.50
2010,07,26,12,02,24.60
2010,07,26,12,03,24.70
2010,07,26,12,04,24.70
2010,07,26,12,05,24.70
2010,07,26,12,06,24.70
2010,07,26,12,07,24.80
2010,07,26,12,08,24.80
2010,07,26,12,09,24.80
2010,07,26,12,10,24.70
2010,07,26,12,11,24.70
2010,07,26,12,12,24.70
2010,07,26,12,13,24.70
2010,07,26,12,14,24.80
2010,07,26,12,15,24.80
2010,07,26,12,16,24.90
2010,07,26,12,17,24.90
2010,07,26,12,18,25.00
2010,07,26,12,19,25.10
2010,07,26,12,20,25.20
2010,07,26,12,21,25.20
2010,07,26,12,22,25.30
2010,07,26,12,23,25.30
2010,07,26,12,24,25.40
2010,07,26,12,25,25.50
2010,07,26,12,26,25.60
2010,07,26,12,27,25.60
2010,07,26,12,28,25.70
2010,07,26,12,29,25.70
2010,07,26,12,30,25.70
2010,07,26,12,31,25.80
2010,07,26,12,32,25.90
2010,07,26,12,33,25.90
2010,07,26,12,34,25.90
2010,07,26,12,35,25.90
2010,07,26,12,36,25.90
2010,07,26,12,37,25.90
2010,07,26,12,38,25.90
2010,07,26,12,39,25.90
2010,07,26,12,40,25.90
2010,07,26,12,41,25.90
2010,07,26,12,42,25.90
2010,07,26,12,43,25.90
2010,07,26,12,44,25.90
2010,07,26,12,45,25.90
2010,07,26,12,46,26.00
2010,07,26,12,47,26.00
2010,07,26,12,48,25.90
2010,07,26,12,49,26.00
2010,07,26,12,50,26.10
2010,07,26,12,51,26.10
2010,07,26,12,52,26.10
2010,07,26,12,53,26.00
2010,07,26,12,54,25.90
2010,07,26,12,55,25.90
2010,07,26,12,56,25.90
2010,07,26,12,57,25.90
2010,07,26,12,58,26.00
2010,07,26,12,59,26.20
2010,07,26,13,00,26.40
2010,07,26,13,01,26.40
2010,07,26,13,02,26.50
2010,07,26,13,03,26.40
2010,07,26,13,04,26.30
2010,07,26,13,05,26.30
2010,07,26,13,06,26.30
2010,07,26,13,07,26.30
2010,07,26,13,08,26.40
2010,07,26,13,09,26.40
2010,07,26,13,10,26.40
2010,07,26,13,11,26.40
2010,07,26,13,12,26.40
2010,07,26,13,13,26.50
2010,07,26,13,14,26.50
2010,07,26,13,15,26.50
2010,07,26,13,16,26.50
2010,07,26,13,17,26.50
2010,07,26,13,18,26.50
2010,07,26,13,19,26.50
2010,07,26,13,20,26.60
2010,07,26,13,21,26.50
2010,07,26,13,22,26.40
2010,07,26,13,23,26.40
2010,07,26,13,24,26.30
2010,07,26,13,25,26.30
2010,07,26,13,26,26.30
2010,07,26,13,27,26.20
2010,07,26,13,28,26.20
2010,07,26,13,29,26.20
2010,07,26,13,30,26.20
2010,07,26,13,31,26.20
2010,07,26,13,32,26.30
2010,07,26,13,33,26.30
2010,07,26,13,34,26.40
2010,07,26,13,35,26.50
2010,07,26,13,36,26.60
2010,07,26,13,37,26.70
2010,07,26,13,38,26.80
2010,07,26,13,39,26.90
2010,07,26,13,40,26.90
2010,07,26,13,41,26.90
2010,07,26,13,42,26.90
2010,07,26,13,43,26.90
2010,07,26,13,44,26.90
2010,07,26,13,45,26.90
2010,07,26,13,46,27.00
2010,07,26,13,47,27.10
2010,07,26,13,48,27.20
2010,07,26,13,49,27.30
2010,07,26,13,50,27.40
2010,07,26,13,51,27.50
2010,07,26,13,52,27.60
2010,07,26,13,53,27.60
2010,07,26,13,54,27.60
2010,07,26,13,55,27.50
2010,07,26,13,56,27.40
2010,07,26,13,57,27.40
2010,07,26,13,58,27.30
2010,07,26,13,59,27.30
2010,07,26,14,00,27.30
2010,07,26,14,01,27.30
2010,07,26,14,02,27.30
2010,07,26,14,03,27.30
2010,07,26,14,04,27.30
2010,07,26,14,05,27.30
2010,07,26,14,06,27.30
2010,07,26,14,07,27.20
2010,07,26,14,08,27.20
2010,07,26,14,09,27.30
2010,07,26,14,10,27.30
2010,07,26,14,11,27.40
2010,07,26,14,12,27.40
2010,07,26,14,13,27.40
2010,07,26,14,14,27.50
2010,07,26,14,15,27.50
2010,07,26,14,16,27.40
2010,07,26,14,17,27.30
2010,07,26,14,18,27.30
2010,07,26,14,19,27.10
2010,07,26,14,20,27.10
2010,07,26,14,21,27.10
2010,07,26,14,22,27.00
2010,07,26,14,23,27.00
2010,07,26,14,24,27.10
2010,07,26,14,25,27.10
2010,07,26,14,26,27.10
2010,07,26,14,27,27.20
2010,07,26,14,28,27.20
2010,07,26,14,29,27.20
2010,07,26,14,30,27.20
2010,07,26,14,31,27.20
2010,07,26,14,32,27.20
2010,07,26,14,33,27.20
2010,07,26,14,34,27.20
2010,07,26,14,35,27.10
2010,07,26,14,36,27.20
2010,07,26,14,37,27.20
2010,07,26,14,38,27.20
2010,07,26,14,39,27.30
2010,07,26,14,40,27.30
2010,07,26,14,41,27.30
2010,07,26,14,42,27.30
2010,07,26,14,43,27.40
2010,07,26,14,44,27.40
2010,07,26,14,45,27.50
2010,07,26,14,46,27.60
2010,07,26,14,47,27.60
2010,07,26,14,48,27.50
2010,07,26,14,49,27.50
2010,07,26,14,50,27.40
2010,07,26,14,51,27.40
2010,07,26,14,52,27.50
2010,07,26,14,53,27.40
2010,07,26,14,54,27.40
2010,07,26,14,55,27.40
2010,07,26,14,56,27.40
2010,07,26,14,57,27.40
2010,07,26,14,58,27.40
2010,07,26,14,59,27.30
2010,07,26,15,00,27.30
2010,07,26,15,01,27.30
2010,07,26,15,02,27.20
2010,07,26,15,03,27.20
2010,07,26,15,04,27.20
2010,07,26,15,05,27.20
2010,07,26,15,06,27.30
2010,07,26,15,07,27.30
2010,07,26,15,08,27.30
2010,07,26,15,09,27.30
2010,07,26,15,10,27.40
2010,07,26,15,11,27.40
2010,07,26,15,12,27.50
2010,07,26,15,13,27.60
2010,07,26,15,14,27.60
2010,07,26,15,15,27.60
2010,07,26,15,16,27.50
2010,07,26,15,17,27.40
2010,07,26,15,18,27.40
2010,07,26,15,19,27.40
2010,07,26,15,20,27.40
2010,07,26,15,21,27.40
2010,07,26,15,22,27.40
2010,07,26,15,23,27.50
2010,07,26,15,24,27.50
2010,07,26,15,25,27.60
2010,07,26,15,26,27.60
2010,07,26,15,27,27.60
2010,07,26,15,28,27.60
2010,07,26,15,29,27.70
2010,07,26,15,30,27.70
2010,07,26,15,31,27.70
2010,07,26,15,32,27.70
2010,07,26,15,33,27.70
2010,07,26,15,34,27.70
2010,07,26,15,35,27.70
2010,07,26,15,36,27.80
2010,07,26,15,37,27.80
2010,07,26,15,38,27.80
2010,07,26,15,39,27.70
2010,07,26,15,40,27.70
2010,07,26,15,41,27.70
2010,07,26,15,42,27.70
2010,07,26,15,43,27.70
2010,07,26,15,44,27.80
2010,07,26,15,45,27.80
2010,07,26,15,46,27.80
2010,07,26,15,47,27.80
2010,07,26,15,48,27.90
2010,07,26,15,49,27.90
2010,07,26,15,50,27.90
2010,07,26,15,51,27.90
2010,07,26,15,52,27.90
2010,07,26,15,53,27.90
2010,07,26,15,54,27.90
2010,07,26,15,55,27.90
2010,07,26,15,56,27.80
2010,07,26,15,57,27.80
2010,07,26,15,58,27.80
2010,07,26,15,59,27.80
2010,07,26,16,00,27.80
2010,07,26,16,01,27.80
2010,07,26,16,02,27.80
2010,07,26,16,03,27.80
2010,07,26,16,04,27.80
2010,07,26,16,05,27.80
2010,07,26,16,06,27.90
2010,07,26,16,07,27.90
2010,07,26,16,08,27.80
2010,07,26,16,09,27.70
2010,07,26,16,10,27.50
2010,07,26,16,11,27.40
2010,07,26,16,12,27.30
2010,07,26,16,13,27.20
2010,07,26,16,14,27.20
2010,07,26,16,15,27.20
2010,07,26,16,16,27.20
2010,07,26,16,17,27.30
2010,07,26,16,18,27.30
2010,07,26,16,19,27.30
2010,07,26,16,20,27.30
2010,07,26,16,21,27.40
2010,07,26,16,22,27.40
2010,07,26,16,23,27.50
2010,07,26,16,24,27.50
2010,07,26,16,25,27.50
2010,07,26,16,26,27.60
2010,07,26,16,27,27.60
2010,07,26,16,28,27.60
2010,07,26,16,29,27.60
2010,07,26,16,30,27.50
2010,07,26,16,31,27.40
2010,07,26,16,32,27.40
2010,07,26,16,33,27.40
2010,07,26,16,34,27.50
2010,07,26,16,35,27.60
2010,07,26,16,36,27.60
2010,07,26,16,37,27.70
2010,07,26,16,38,27.60
2010,07,26,16,39,27.70
2010,07,26,16,40,27.70
2010,07,26,16,41,27.70
2010,07,26,16,42,27.70
2010,07,26,16,43,27.70
2010,07,26,16,44,27.60
2010,07,26,16,45,27.60
2010,07,26,16,46,27.60
2010,07,26,16,47,27.60
2010,07,26,16,48,27.60
2010,07,26,16,49,27.60
2010,07,26,16,50,27.70
2010,07,26,16,51,27.70
2010,07,26,16,52,27.70
2010,07,26,16,53,27.60
2010,07,26,16,54,27.70
2010,07,26,16,55,27.60
2010,07,26,16,56,27.60
2010,07,26,16,57,27.60
2010,07,26,16,58,27.50
2010,07,26,16,59,27.50
2010,07,26,17,00,27.40
2010,07,26,17,01,27.40
2010,07,26,17,02,27.40
2010,07,26,17,03,27.40
2010,07,26,17,04,27.40
2010,07,26,17,05,27.40
2010,07,26,17,06,27.40
2010,07,26,17,07,27.30
2010,07,26,17,08,27.30
2010,07,26,17,09,27.30
2010,07,26,17,10,27.30
2010,07,26,17,11,27.40
2010,07,26,17,12,27.50
2010,07,26,17,13,27.50
2010,07,26,17,14,27.40
2010,07,26,17,15,27.40
2010,07,26,17,16,27.30
2010,07,26,17,17,27.30
2010,07,26,17,18,27.30
2010,07,26,17,19,27.40